Flag for Vietnam Weather past 2 weeks in Da Nang, Vietnam

Now
82 °F

Passing clouds.


Feels Like: 89 °F
Forecast: 79 / 89 °F
Wind: No wind

Location: Da Nang Airport

Current Time: Jul 8, 2015 at 1:53:02 AM

Latest Report: Jul 8, 2015 at 12:30 AM


Visibility: 5 mi

Pressure: 29.65 "Hg

Humidity: 79%

Dew point: 75 °F

Location of Da NangLocation

Historic Weather in Da Nang — Graph

°F

Da Nang temperature yesterday

Maximum temperature yesterday: 91 °F (at 11:30 AM)
Minimum temperature yesterday: 79 °F (at 4:00 AM)
Average temperature yesterday: 85 °F

Past Weeks' High & Low Weather Summary

 TemperatureHumidityPressure
High102 °F (Jul 2, 11:00 AM)100% (Jun 23, 4:30 AM)29.86 "Hg (Jun 23, 4:30 AM)
Low75 °F (Jul 6, 2:00 PM)37% (Jul 2, 11:00 AM)29.50 "Hg (Jun 23, 3:30 AM)
Average88 °F68%29.66 "Hg
* Reported Midnight between Jun 22 and Jun 23 — Jul 8 12:30 AM, Da Nang, Weather by CustomWeather, © 2015

Note: Actual official high and low records may vary slightly from our data, if they occured in-between our weather recording intervals... More about our weather records

Advertising

Da Nang weather history for previous 24 hours

 ConditionsComfort  
Time TempWeatherWind HumidityBarometerVisibility
12:30 AM
Wed, Jul 8
82 °FPassing clouds.No wind79%29.65 "Hg5 mi
12:00 AM82 °FPassing clouds.1 mph74%29.65 "Hg5 mi
11:30 PM
Tue, Jul 7
82 °FPassing clouds.2 mph79%29.68 "Hg5 mi
11:00 PM82 °FPassing clouds.5 mph79%29.68 "Hg5 mi
10:30 PM82 °FPassing clouds.3 mph79%29.68 "Hg5 mi
10:00 PM82 °FPassing clouds.3 mph79%29.68 "Hg5 mi
9:30 PM82 °FPassing clouds.8 mph84%29.68 "Hg5 mi
9:00 PM82 °FPassing clouds.13 mph84%29.65 "Hg5 mi
8:30 PM82 °FPassing clouds.16 mph84%29.65 "Hg5 mi
8:00 PM84 °FPassing clouds.13 mph79%29.62 "Hg5 mi
7:30 PM84 °FPassing clouds.15 mph79%29.62 "Hg5 mi
7:00 PM84 °FPassing clouds.13 mph79%29.62 "Hg5 mi
6:30 PM84 °FPassing clouds.14 mph79%29.62 "Hg5 mi
6:00 PM84 °FScattered clouds.14 mph79%29.59 "HgN/A
5:30 PM86 °FScattered clouds.15 mph75%29.59 "HgN/A
5:00 PM86 °FScattered clouds.16 mph70%29.59 "HgN/A
4:30 PM86 °FScattered clouds.16 mph75%29.59 "HgN/A
4:00 PM88 °FScattered clouds.21 mph70%29.56 "HgN/A
3:30 PM88 °FScattered clouds.21 mph66%29.56 "HgN/A
3:00 PM90 °FScattered clouds.21 mph71%29.56 "HgN/A
2:30 PM91 °FScattered clouds.14 mph67%29.56 "HgN/A
2:00 PM88 °FScattered clouds.16 mph75%29.56 "Hg5 mi
1:30 PM88 °FPartly sunny.15 mph75%29.59 "Hg5 mi
1:00 PM88 °FPartly sunny.13 mph70%29.59 "Hg5 mi
12:30 PM90 °FPartly sunny.17 mph67%29.59 "Hg5 mi
12:00 PM91 °FPartly sunny.17 mph63%29.62 "Hg5 mi
11:30 AM91 °FPartly sunny.15 mph63%29.62 "Hg5 mi
11:00 AM90 °FPartly sunny.13 mph67%29.62 "Hg5 mi
10:30 AM88 °FPartly sunny.14 mph70%29.62 "Hg5 mi
10:00 AM90 °FScattered clouds.7 mph67%29.62 "Hg5 mi
9:30 AM88 °FScattered clouds.7 mph70%29.65 "Hg5 mi
9:00 AM88 °FScattered clouds.3 mph66%29.65 "Hg5 mi
8:30 AM88 °FScattered clouds.6 mph66%29.65 "Hg5 mi
8:00 AM88 °FScattered clouds.5 mph70%29.65 "Hg5 mi
7:30 AM84 °FScattered clouds.5 mph79%29.65 "Hg5 mi
7:00 AM82 °FScattered clouds.3 mph84%29.65 "Hg5 mi
6:30 AM82 °FScattered clouds.2 mph84%29.65 "Hg5 mi
6:00 AM81 °FScattered clouds.No wind89%29.62 "Hg5 mi
5:30 AM79 °FScattered clouds.3 mph94%29.62 "Hg5 mi
4:30 AM79 °FPassing clouds.No wind94%29.59 "Hg5 mi
4:00 AM79 °FPassing clouds.1 mph94%29.59 "Hg5 mi
3:30 AM81 °FPassing clouds.1 mph89%29.59 "Hg5 mi
3:00 AM81 °FPassing clouds.1 mph84%29.59 "Hg5 mi
2:30 AM81 °FPassing clouds.2 mph89%29.59 "Hg5 mi
2:00 AM81 °FPassing clouds.1 mph89%29.59 "Hg5 mi
1:30 AM81 °FPassing clouds.2 mph89%29.62 "Hg5 mi
1:00 AM81 °FPassing clouds.1 mph89%29.62 "Hg5 mi
Weather by CustomWeather, © 2015

See weather overviewHow to use our weather pages